Weather in Bolshaya Usa

Russia / Perm Krai     56°44′16″N   55°05′58″E
temp.,
°C
wind,
m/s
gust,
m/s
humid.,
%
clouds,
%
prec.,
mm/h
press.,
hPa
HPBL,
m
15 august, mon
mon1523:00+17wnw115577 0.0 102211
02:00+15w115885 0.0 102210
05:00+15wnw225943 0.0 102330
08:00+15nnw126552 0.0 1024103
11:00+19n22552 0.0 1024773
14:00+22n34480 0.0 10231535
17:00+22n44420 0.0 10231673
20:00+18nne22600 0.0 102331
16 august, tue
tue1623:00+14ne22640 0.0 102412
02:00+12e11700 0.0 102510
05:00+11ene01740 0.0 102610
08:00+15nnw00630 0.0 102670
11:00+20wnw22485 0.0 1026645
14:00+23nw32405 0.0 10251377
17:00+24nnw34395 0.0 10241935
20:00+20wnw225858 0.0 102414
17 august, wed
wed1723:00+19nw2356100 0.0 102447
02:00+16ne3470100 0.0 102553
05:00+13ne226869 0.0 102526
08:00+15ne24638 0.0 1026136
11:00+20ne34485 0.0 1025748
14:00+22nne34405 0.0 10241335
17:00+23n23402 0.0 10231375
20:00+19nne22605 0.0 102324
18 august, thu
thu1823:00+16s1163100 0.0 102311
02:00+14nne227470 0.0 102325
05:00+13w11805 0.0 102211
08:00+15ne23745 0.0 1022167
11:00+19ne336247 0.0 1023664
14:00+22ne335546 0.0 10221203
17:00+23nne44527 0.0 10221329
20:00+19nne346716 0.0 102384
19 august, fri
fri1923:00+14e477899 0.0 1024127
02:00+12e226816 0.0 102526
05:00+11e22745 0.0 102618
08:00+14ese23625 0.0 1028139
11:00+19se22445 0.0 1028776
14:00+22e11394 0.0 10281550
17:00+22nne22375 0.0 10271618
20:00+18ene11545 0.0 102711